This is the latest recevied weather packets stored in our database for station/object DL2GPS-3. If no packets are shown the sender has not sent any weather packets the latest 10 day(s).
| Time | Temp. | Humidity | Pressure | Rain* | Wind** | Luminosity | Snow |
|---|---|---|---|---|---|---|---|
| 1788431128 | 23.33° C | 42% | 1027 hPa | - | - | - | - |
| 1788430523 | 22.78° C | 44% | 1026.9 hPa | - | - | - | - |
| 1788429918 | 22.78° C | 43% | 1027.1 hPa | - | - | - | - |
| 1788429313 | 22.78° C | 44% | 1027 hPa | - | - | - | - |
| 1788428708 | 22.78° C | 44% | 1026.9 hPa | - | - | - | - |
| 1788428103 | 23.33° C | 44% | 1026.9 hPa | - | - | - | - |
| 1788427498 | 22.78° C | 44% | 1026.8 hPa | - | - | - | - |
| 1788426893 | 22.78° C | 45% | 1027 hPa | - | - | - | - |
| 1788426288 | 22.78° C | 45% | 1027.1 hPa | - | - | - | - |
| 1788425683 | 22.78° C | 46% | 1027.1 hPa | - | - | - | - |
| 1788425078 | 22.78° C | 46% | 1027 hPa | - | - | - | - |
| 1788424473 | 22.22° C | 48% | 1027 hPa | - | - | - | - |
| 1788423868 | 23.33° C | 46% | 1026.7 hPa | - | - | - | - |
| 1788423264 | 22.78° C | 46% | 1026.7 hPa | - | - | - | - |
| 1788422660 | 23.33° C | 46% | 1026.8 hPa | - | - | - | - |
| 1788422053 | 22.78° C | 46% | 1027.1 hPa | - | - | - | - |
| 1788421448 | 22.78° C | 46% | 1027 hPa | - | - | - | - |
| 1788420843 | 22.78° C | 46% | 1026.6 hPa | - | - | - | - |
| 1788420239 | 23.33° C | 46% | 1026.6 hPa | - | - | - | - |
| 1788419632 | 23.33° C | 46% | 1026.6 hPa | - | - | - | - |
| 1788419027 | 23.33° C | 46% | 1026.6 hPa | - | - | - | - |
| 1788418422 | 22.22° C | 50% | 1026.4 hPa | - | - | - | - |
| 1788417817 | 22.22° C | 53% | 1026.5 hPa | - | - | - | - |
| 1788417212 | 22.22° C | 53% | 1026.6 hPa | - | - | - | - |
| 1788416607 | 18.89° C | 63% | 1026.6 hPa | - | - | - | - |
* Rain since midnight (hover to see other rain measurements)
** Current wind speed in m/s (hover to see current wind gust speed)